Location: Newark
(46.7000°N, 60.6000°W)
Time: 03:45:13
(UTC+00:00)

Vanguard 3 - Pass Details

Date: 05 November 2020
Orbit: 508 x 3262 km, 33.3° (Epoch: 26 November)

Event Time Altitude Azimuth Distance (km) Brightness Sun altitude
Rises 09:56:02 0° 257° (WSW) 5,906 - -9.8°
Exits shadow 09:57:27 - 256° (WSW) 5,613 10.9 -9.6°
Reaches altitude 10° 09:59:34 10° 253° (WSW) 5,201 10.7 -9.2°
Maximum altitude 10:15:24 53° 184° (S) 3,658 10.5 -6.6°
Drops below altitude 10° 10:34:05 10° 115° (ESE) 6,029 13.6 -3.5°
Sets 10:38:35 0° 111° (ESE) 6,865 15.6 -2.8°
